Вернуться в каталог

FENGYUN 1C DEB

АктивенSSO
NORAD 31003·DEBRIS·🇨🇳 China

Запущен May 10, 1999 с Taiyuan Satellite Launch Center

Loading…

Ближайшие Пролёты (ближайшие 24 часа)

TLE

СвежийSource: Space-Track

Эпоха: Sep 14, 2026, 04:53 UTC

1 31003U 99025BCV 26257.20365780  .00001982  00000-0  83706-3 0  9992
2 31003  98.8320 341.0929 0041617 136.0652 224.3849 14.26285268  4290

Отслеживайте FENGYUN 1C DEB в реальном времени с AllMySat

Download on the App Store